Location: *
(2.5500°S, 65.9667°W)
Time: 18:41:49
(UTC+00:00)

deb Chang Zheng 4 - Visible Passes

Search period start: 25 May 2022 00:00
Search period end: 04 June 2022 00:00
Orbit: 583 x 604 km, 98.6° (Epoch: 25 May)

Date Brightness Start Highest point End Pass type
(mag) Time Alt. Az. Time Alt. Az. Time Alt. Az.
26 May 5.1 00:06:13 25° NNE 00:06:13 25° NNE 00:08:02 10° N visible
27 May 5.1 00:15:17 25° N 00:15:17 25° N 00:17:05 10° N visible
28 May 5.3 00:24:19 24° NNW 00:24:19 24° NNW 00:26:01 10° NNW visible
29 May 5.6 00:33:18 22° NNW 00:33:18 22° NNW 00:34:49 10° NNW visible
30 May 5.9 00:42:15 19° NW 00:42:15 19° NW 00:43:32 10° NNW visible
31 May 6.2 00:51:10 16° NW 00:51:10 16° NW 00:52:06 10° NW visible
01 Jun 6.5 01:00:02 13° NW 01:00:02 13° NW 01:00:32 10° NW visible
01 Jun 5.6 23:32:16 12° NE 23:32:16 12° NE 23:32:55 10° NE visible
02 Jun 5.4 23:41:04 15° NE 23:41:04 15° NE 23:42:12 10° NNE visible
03 Jun 5.3 23:49:48 18° NE 23:49:48 18° NE 23:51:15 10° NNE visible
